Year,Month,Day,Hour,Minute,Value (Times are PST for windspeed in km/hr)
2021,01,14,00,00,15.60
2021,01,14,00,01,17.60
2021,01,14,00,02,17.00
2021,01,14,00,03,16.20
2021,01,14,00,04,15.20
2021,01,14,00,05,14.70
2021,01,14,00,06,15.40
2021,01,14,00,07,15.90
2021,01,14,00,08,14.70
2021,01,14,00,09,14.50
2021,01,14,00,10,16.30
2021,01,14,00,11,17.50
2021,01,14,00,12,17.10
2021,01,14,00,13,18.40
2021,01,14,00,14,19.90
2021,01,14,00,15,19.20
2021,01,14,00,16,19.10
2021,01,14,00,17,18.60
2021,01,14,00,18,17.20
2021,01,14,00,19,18.30
2021,01,14,00,20,20.00
2021,01,14,00,21,21.50
2021,01,14,00,22,21.10
2021,01,14,00,23,21.90
2021,01,14,00,24,22.20
2021,01,14,00,25,22.20
2021,01,14,00,26,24.30
2021,01,14,00,27,24.10
2021,01,14,00,28,23.80
2021,01,14,00,29,24.10
2021,01,14,00,30,24.60
2021,01,14,00,31,23.40
2021,01,14,00,32,25.80
2021,01,14,00,33,27.40
2021,01,14,00,34,26.60
2021,01,14,00,35,25.10
2021,01,14,00,36,25.20
2021,01,14,00,37,27.10
2021,01,14,00,38,27.10
2021,01,14,00,39,25.50
2021,01,14,00,40,26.60
2021,01,14,00,41,26.70
2021,01,14,00,42,27.90
2021,01,14,00,43,28.00
2021,01,14,00,44,28.30
2021,01,14,00,45,27.10
2021,01,14,00,46,27.80
2021,01,14,00,47,26.80
2021,01,14,00,48,27.10
2021,01,14,00,49,28.90
2021,01,14,00,50,27.40
2021,01,14,00,51,26.40
2021,01,14,00,52,30.50
2021,01,14,00,53,34.30
2021,01,14,00,54,29.00
2021,01,14,00,55,30.30
2021,01,14,00,56,28.70
2021,01,14,00,57,28.40
2021,01,14,00,58,30.70
2021,01,14,00,59,34.60
2021,01,14,01,00,35.70
2021,01,14,01,01,33.90
2021,01,14,01,02,35.70
2021,01,14,01,03,35.60
2021,01,14,01,04,33.50
2021,01,14,01,05,34.60
2021,01,14,01,06,33.60
2021,01,14,01,07,32.60
2021,01,14,01,08,32.80
2021,01,14,01,09,34.70
2021,01,14,01,10,36.50
2021,01,14,01,11,38.20
2021,01,14,01,12,36.10
2021,01,14,01,13,33.60
2021,01,14,01,14,31.50
2021,01,14,01,15,31.10
2021,01,14,01,16,30.00
2021,01,14,01,17,33.10
2021,01,14,01,18,30.40
2021,01,14,01,19,32.00
2021,01,14,01,20,32.90
2021,01,14,01,21,31.10
2021,01,14,01,22,30.30
2021,01,14,01,23,24.30
2021,01,14,01,24,25.20
2021,01,14,01,25,27.00
2021,01,14,01,26,27.40
2021,01,14,01,27,26.20
2021,01,14,01,28,23.00
2021,01,14,01,29,25.70
2021,01,14,01,30,25.70
2021,01,14,01,31,26.40
2021,01,14,01,32,26.40
2021,01,14,01,33,28.70
2021,01,14,01,34,26.40
2021,01,14,01,35,26.40
2021,01,14,01,36,27.90
2021,01,14,01,37,27.40
2021,01,14,01,38,26.00
2021,01,14,01,39,26.70
2021,01,14,01,40,25.40
2021,01,14,01,41,28.20
2021,01,14,01,42,27.20
2021,01,14,01,43,24.20
2021,01,14,01,44,25.60
2021,01,14,01,45,25.70
2021,01,14,01,46,25.70
2021,01,14,01,47,25.70
2021,01,14,01,48,25.70
2021,01,14,01,49,26.20
2021,01,14,01,50,22.60
2021,01,14,01,51,20.00
2021,01,14,01,52,19.60
2021,01,14,01,53,18.50
2021,01,14,01,54,20.30
2021,01,14,01,55,19.40
2021,01,14,01,56,20.30
2021,01,14,01,57,17.70
2021,01,14,01,58,17.90
2021,01,14,01,59,19.20
2021,01,14,02,00,17.60
2021,01,14,02,01,18.10
2021,01,14,02,02,15.60
2021,01,14,02,03,18.20
2021,01,14,02,04,16.60
2021,01,14,02,05,17.30
2021,01,14,02,06,16.10
2021,01,14,02,07,16.20
2021,01,14,02,08,18.00
2021,01,14,02,09,18.00
2021,01,14,02,10,18.80
2021,01,14,02,11,18.00
2021,01,14,02,12,18.20
2021,01,14,02,13,18.00
2021,01,14,02,14,19.30
2021,01,14,02,15,19.60
2021,01,14,02,16,19.30
2021,01,14,02,17,19.50
2021,01,14,02,18,19.20
2021,01,14,02,19,20.30
2021,01,14,02,20,20.10
2021,01,14,02,21,20.50
2021,01,14,02,22,19.20
2021,01,14,02,23,20.30
2021,01,14,02,24,19.80
2021,01,14,02,25,21.10
2021,01,14,02,26,20.50
2021,01,14,02,27,20.00
2021,01,14,02,28,20.00
2021,01,14,02,29,19.50
2021,01,14,02,30,18.40
2021,01,14,02,31,18.50
2021,01,14,02,32,18.50
2021,01,14,02,33,19.20
2021,01,14,02,34,19.50
2021,01,14,02,35,19.90
2021,01,14,02,36,19.50
2021,01,14,02,37,19.20
2021,01,14,02,38,20.70
2021,01,14,02,39,20.50
2021,01,14,02,40,22.50
2021,01,14,02,41,22.40
2021,01,14,02,42,22.70
2021,01,14,02,43,22.20
2021,01,14,02,44,21.50
2021,01,14,02,45,21.70
2021,01,14,02,46,21.70
2021,01,14,02,47,19.60
2021,01,14,02,48,20.10
2021,01,14,02,49,19.50
2021,01,14,02,50,20.30
2021,01,14,02,51,20.80
2021,01,14,02,52,21.80
2021,01,14,02,53,20.90
2021,01,14,02,54,21.70
2021,01,14,02,55,23.30
2021,01,14,02,56,22.00
2021,01,14,02,57,21.80
2021,01,14,02,58,20.50
2021,01,14,02,59,21.00
2021,01,14,03,00,20.00
2021,01,14,03,01,20.30
2021,01,14,03,02,19.80
2021,01,14,03,03,21.30
2021,01,14,03,04,20.70
2021,01,14,03,05,20.10
2021,01,14,03,06,19.50
2021,01,14,03,07,20.30
2021,01,14,03,08,20.90
2021,01,14,03,09,20.70
2021,01,14,03,10,21.60
2021,01,14,03,11,21.40
2021,01,14,03,12,21.40
2021,01,14,03,13,21.90
2021,01,14,03,14,21.50
2021,01,14,03,15,21.90
2021,01,14,03,16,20.90
2021,01,14,03,17,23.50
2021,01,14,03,18,21.60
2021,01,14,03,19,23.00
2021,01,14,03,20,23.80
2021,01,14,03,21,24.20
2021,01,14,03,22,23.60
2021,01,14,03,23,23.10
2021,01,14,03,24,24.00
2021,01,14,03,25,23.80
2021,01,14,03,26,22.50
2021,01,14,03,27,21.30
2021,01,14,03,28,19.90
2021,01,14,03,29,20.70
2021,01,14,03,30,20.60
2021,01,14,03,31,19.20
2021,01,14,03,32,20.80
2021,01,14,03,33,20.90
2021,01,14,03,34,20.90
2021,01,14,03,35,20.90
2021,01,14,03,36,21.50
2021,01,14,03,37,21.60
2021,01,14,03,38,20.80
2021,01,14,03,39,20.80
2021,01,14,03,40,20.80
2021,01,14,03,41,20.30
2021,01,14,03,42,21.70
2021,01,14,03,43,21.00
2021,01,14,03,44,22.70
2021,01,14,03,45,20.10
2021,01,14,03,46,20.80
2021,01,14,03,47,21.10
2021,01,14,03,48,20.00
2021,01,14,03,49,20.30
2021,01,14,03,50,20.20
2021,01,14,03,51,20.30
2021,01,14,03,52,18.90
2021,01,14,03,53,20.50
2021,01,14,03,54,19.50
2021,01,14,03,55,18.60
2021,01,14,03,56,19.40
2021,01,14,03,57,21.10
2021,01,14,03,58,22.40
2021,01,14,03,59,24.80
2021,01,14,04,00,24.30
2021,01,14,04,01,25.10
2021,01,14,04,02,24.50
2021,01,14,04,03,24.60
2021,01,14,04,04,25.30
2021,01,14,04,05,25.30
2021,01,14,04,06,23.80
2021,01,14,04,07,23.20
2021,01,14,04,08,24.20
2021,01,14,04,09,24.20
2021,01,14,04,10,24.20
2021,01,14,04,11,24.20
2021,01,14,04,12,23.30
2021,01,14,04,13,18.70
2021,01,14,04,14,20.50
2021,01,14,04,15,21.50
2021,01,14,04,16,22.20
2021,01,14,04,17,22.20
2021,01,14,04,18,24.00
2021,01,14,04,19,22.50
2021,01,14,04,20,23.30
2021,01,14,04,21,22.20
2021,01,14,04,22,21.70
2021,01,14,04,23,23.30
2021,01,14,04,24,24.50
2021,01,14,04,25,25.10
2021,01,14,04,26,24.90
2021,01,14,04,27,26.30
2021,01,14,04,28,28.40
2021,01,14,04,29,27.40
2021,01,14,04,30,28.70
2021,01,14,04,31,29.20
2021,01,14,04,32,27.70
2021,01,14,04,33,24.90
2021,01,14,04,34,25.50
2021,01,14,04,35,24.70
2021,01,14,04,36,25.60
2021,01,14,04,37,24.60
2021,01,14,04,38,25.00
2021,01,14,04,39,23.30
2021,01,14,04,40,23.10
2021,01,14,04,41,22.30
2021,01,14,04,42,22.00
2021,01,14,04,43,20.30
2021,01,14,04,44,23.50
2021,01,14,04,45,23.30
2021,01,14,04,46,24.90
2021,01,14,04,47,22.50
2021,01,14,04,48,24.60
2021,01,14,04,49,24.80
2021,01,14,04,50,23.50
2021,01,14,04,51,22.60
2021,01,14,04,52,22.90
2021,01,14,04,53,24.10
2021,01,14,04,54,23.80
2021,01,14,04,55,22.60
2021,01,14,04,56,23.10
2021,01,14,04,57,22.90
2021,01,14,04,58,25.40
2021,01,14,04,59,24.70
2021,01,14,05,00,24.70
2021,01,14,05,01,24.30
2021,01,14,05,02,23.80
2021,01,14,05,03,22.80
2021,01,14,05,04,23.00
2021,01,14,05,05,24.10
2021,01,14,05,06,25.60
2021,01,14,05,07,25.00
2021,01,14,05,08,24.40
2021,01,14,05,09,21.50
2021,01,14,05,10,22.20
2021,01,14,05,11,22.50
2021,01,14,05,12,23.30
2021,01,14,05,13,22.00
2021,01,14,05,14,22.40
2021,01,14,05,15,21.80
2021,01,14,05,16,22.50
2021,01,14,05,17,25.00
2021,01,14,05,18,25.80
2021,01,14,05,19,25.40
2021,01,14,05,20,23.00
2021,01,14,05,21,22.80
2021,01,14,05,22,23.90
2021,01,14,05,23,22.50
2021,01,14,05,24,22.20
2021,01,14,05,25,21.20
2021,01,14,05,26,21.30
2021,01,14,05,27,21.20
2021,01,14,05,28,23.00
2021,01,14,05,29,22.20
2021,01,14,05,30,23.00
2021,01,14,05,31,20.90
2021,01,14,05,32,21.20
2021,01,14,05,33,19.50
2021,01,14,05,34,19.60
2021,01,14,05,35,23.60
2021,01,14,05,36,24.60
2021,01,14,05,37,22.60
2021,01,14,05,38,18.70
2021,01,14,05,39,17.90
2021,01,14,05,40,19.70
2021,01,14,05,41,19.50
2021,01,14,05,42,20.80
2021,01,14,05,43,21.20
2021,01,14,05,44,18.20
2021,01,14,05,45,16.40
2021,01,14,05,46,17.70
2021,01,14,05,47,19.40
2021,01,14,05,48,18.90
2021,01,14,05,49,20.30
2021,01,14,05,50,20.80
2021,01,14,05,51,19.90
2021,01,14,05,52,20.10
2021,01,14,05,53,19.60
2021,01,14,05,54,19.30
2021,01,14,05,55,19.30
2021,01,14,05,56,19.30
2021,01,14,05,57,19.30
2021,01,14,05,58,19.40
2021,01,14,05,59,19.80
2021,01,14,06,00,18.90
2021,01,14,06,01,17.90
2021,01,14,06,02,17.50
2021,01,14,06,03,17.90
2021,01,14,06,04,19.10
2021,01,14,06,05,18.00
2021,01,14,06,06,18.30
2021,01,14,06,07,17.60
2021,01,14,06,08,16.50
2021,01,14,06,09,17.00
2021,01,14,06,10,16.90
2021,01,14,06,11,15.60
2021,01,14,06,12,18.80
2021,01,14,06,13,19.80
2021,01,14,06,14,18.50
2021,01,14,06,15,17.20
2021,01,14,06,16,18.60
2021,01,14,06,17,17.10
2021,01,14,06,18,16.10
2021,01,14,06,19,16.30
2021,01,14,06,20,17.40
2021,01,14,06,21,18.50
2021,01,14,06,22,18.70
2021,01,14,06,23,18.30
2021,01,14,06,24,18.20
2021,01,14,06,25,17.50
2021,01,14,06,26,17.50
2021,01,14,06,27,17.30
2021,01,14,06,28,17.10
2021,01,14,06,29,16.00
2021,01,14,06,30,16.10
2021,01,14,06,31,16.10
2021,01,14,06,32,16.10
2021,01,14,06,33,16.10
2021,01,14,06,34,16.10
2021,01,14,06,35,16.80
2021,01,14,06,36,17.90
2021,01,14,06,37,18.80
2021,01,14,06,38,19.20
2021,01,14,06,39,16.90
2021,01,14,06,40,17.00
2021,01,14,06,41,15.80
2021,01,14,06,42,15.00
2021,01,14,06,43,17.00
2021,01,14,06,44,15.80
2021,01,14,06,45,14.70
2021,01,14,06,46,14.90
2021,01,14,06,47,16.60
2021,01,14,06,48,16.40
2021,01,14,06,49,14.90
2021,01,14,06,50,13.30
2021,01,14,06,51,14.90
2021,01,14,06,52,15.10
2021,01,14,06,53,14.80
2021,01,14,06,54,13.40
2021,01,14,06,55,13.10
2021,01,14,06,56,12.50
2021,01,14,06,57,13.30
2021,01,14,06,58,13.70
2021,01,14,06,59,13.40
2021,01,14,07,00,14.00
2021,01,14,07,01,12.70
2021,01,14,07,02,13.40
2021,01,14,07,03,14.30
2021,01,14,07,04,14.20
2021,01,14,07,05,13.30
2021,01,14,07,06,13.40
2021,01,14,07,07,11.80
2021,01,14,07,08,12.70
2021,01,14,07,09,13.50
2021,01,14,07,10,13.00
2021,01,14,07,11,12.30
2021,01,14,07,12,11.90
2021,01,14,07,13,11.10
2021,01,14,07,14,10.60
2021,01,14,07,15,11.10
2021,01,14,07,16,12.10
2021,01,14,07,17,12.70
2021,01,14,07,18,11.00
2021,01,14,07,19,12.10
2021,01,14,07,20,12.50
2021,01,14,07,21,12.30
2021,01,14,07,22,11.80
2021,01,14,07,23,11.30
2021,01,14,07,24,11.90
2021,01,14,07,25,10.10
2021,01,14,07,26,12.70
2021,01,14,07,27,13.10
2021,01,14,07,28,14.60
2021,01,14,07,29,15.40
2021,01,14,07,30,13.40
2021,01,14,07,31,12.70
2021,01,14,07,32,12.00
2021,01,14,07,33,12.30
2021,01,14,07,34,12.10
2021,01,14,07,35,11.80
2021,01,14,07,36,10.90
2021,01,14,07,37,11.30
2021,01,14,07,38,11.90
2021,01,14,07,39,11.50
2021,01,14,07,40,9.70
2021,01,14,07,41,8.70
2021,01,14,07,42,6.80
2021,01,14,07,43,7.10
2021,01,14,07,44,9.90
2021,01,14,07,45,10.10
2021,01,14,07,46,9.80
2021,01,14,07,47,11.10
2021,01,14,07,48,8.90
2021,01,14,07,49,9.70
2021,01,14,07,50,8.60
2021,01,14,07,51,9.00
2021,01,14,07,52,10.40
2021,01,14,07,53,11.00
2021,01,14,07,54,9.70
2021,01,14,07,55,9.40
2021,01,14,07,56,9.30
2021,01,14,07,57,8.80
2021,01,14,07,58,9.20
2021,01,14,07,59,10.40
2021,01,14,08,00,12.00
2021,01,14,08,01,11.50
2021,01,14,08,02,10.90
2021,01,14,08,03,12.30
2021,01,14,08,04,13.80
2021,01,14,08,05,14.40
2021,01,14,08,06,14.90
2021,01,14,08,07,17.80
2021,01,14,08,08,13.50
2021,01,14,08,09,14.20
2021,01,14,08,10,12.60
2021,01,14,08,11,12.90
2021,01,14,08,12,16.20
2021,01,14,08,13,15.90
2021,01,14,08,14,9.80
2021,01,14,08,15,9.00
2021,01,14,08,16,10.00
2021,01,14,08,17,12.80
2021,01,14,08,18,14.40
2021,01,14,08,19,12.90
2021,01,14,08,20,12.20
2021,01,14,08,21,13.30
2021,01,14,08,22,11.40
2021,01,14,08,23,11.20
2021,01,14,08,24,10.00
2021,01,14,08,25,12.30
2021,01,14,08,26,12.60
2021,01,14,08,27,13.50
2021,01,14,08,28,13.60
2021,01,14,08,29,14.90
2021,01,14,08,30,13.70
2021,01,14,08,31,13.30
2021,01,14,08,32,13.40
2021,01,14,08,33,14.10
2021,01,14,08,34,15.20
2021,01,14,08,35,14.50
2021,01,14,08,36,17.20
2021,01,14,08,37,16.10
2021,01,14,08,38,14.20
2021,01,14,08,39,15.80
2021,01,14,08,40,15.60
2021,01,14,08,41,15.40
2021,01,14,08,42,14.10
2021,01,14,08,43,14.50
2021,01,14,08,44,15.50
2021,01,14,08,45,14.20
2021,01,14,08,46,13.40
2021,01,14,08,47,15.00
2021,01,14,08,48,15.60
2021,01,14,08,49,16.20
2021,01,14,08,50,15.50
2021,01,14,08,51,15.20
2021,01,14,08,52,13.30
2021,01,14,08,53,14.40
2021,01,14,08,54,13.80
2021,01,14,08,55,12.80
2021,01,14,08,56,16.80
2021,01,14,08,57,15.90
2021,01,14,08,58,13.30
2021,01,14,08,59,17.40
2021,01,14,09,00,17.50
2021,01,14,09,01,19.20
2021,01,14,09,02,20.00
2021,01,14,09,03,20.80
2021,01,14,09,04,17.80
2021,01,14,09,05,17.30
2021,01,14,09,06,16.30
2021,01,14,09,07,13.40
2021,01,14,09,08,12.00
2021,01,14,09,09,16.70
2021,01,14,09,10,20.40
2021,01,14,09,11,17.80
2021,01,14,09,12,17.00
2021,01,14,09,13,21.50
2021,01,14,09,14,20.10
2021,01,14,09,15,16.90
2021,01,14,09,16,15.30
2021,01,14,09,17,17.10
2021,01,14,09,18,16.90
2021,01,14,09,19,19.00
2021,01,14,09,20,20.20
2021,01,14,09,21,18.00
2021,01,14,09,22,18.00
2021,01,14,09,23,19.10
2021,01,14,09,24,16.70
2021,01,14,09,25,16.30
2021,01,14,09,26,16.90
2021,01,14,09,27,20.60
2021,01,14,09,28,18.40
2021,01,14,09,29,16.70
2021,01,14,09,30,18.10
2021,01,14,09,31,19.50
2021,01,14,09,32,18.30
2021,01,14,09,33,18.20
2021,01,14,09,34,20.40
2021,01,14,09,35,18.00
2021,01,14,09,36,17.80
2021,01,14,09,37,15.30
2021,01,14,09,38,18.20
2021,01,14,09,39,17.40
2021,01,14,09,40,15.10
2021,01,14,09,41,18.30
2021,01,14,09,42,19.50
2021,01,14,09,43,17.50
2021,01,14,09,44,19.00
2021,01,14,09,45,17.30
2021,01,14,09,46,15.90
2021,01,14,09,47,14.30
2021,01,14,09,48,15.70
2021,01,14,09,49,18.20
2021,01,14,09,50,19.70
2021,01,14,09,51,22.00
2021,01,14,09,52,20.80
2021,01,14,09,53,19.50
2021,01,14,09,54,20.20
2021,01,14,09,55,22.90
2021,01,14,09,56,23.80
2021,01,14,09,57,20.80
2021,01,14,09,58,22.40
2021,01,14,09,59,19.70
2021,01,14,10,00,22.20
2021,01,14,10,01,23.90
2021,01,14,10,02,24.40
2021,01,14,10,03,21.70
2021,01,14,10,04,25.70
2021,01,14,10,05,22.70
2021,01,14,10,06,23.60
2021,01,14,10,07,22.90
2021,01,14,10,08,24.60
2021,01,14,10,09,25.10
2021,01,14,10,10,26.00
2021,01,14,10,11,26.40
2021,01,14,10,12,21.50
2021,01,14,10,13,23.70
2021,01,14,10,14,22.10
2021,01,14,10,15,19.00
2021,01,14,10,16,24.80
2021,01,14,10,17,23.80
2021,01,14,10,18,20.10
2021,01,14,10,19,22.00
2021,01,14,10,20,19.00
2021,01,14,10,21,20.30
2021,01,14,10,22,18.00
2021,01,14,10,23,18.00
2021,01,14,10,24,20.20
2021,01,14,10,25,16.00
2021,01,14,10,26,18.00
2021,01,14,10,27,22.10
2021,01,14,10,28,18.50
2021,01,14,10,29,16.40
2021,01,14,10,30,21.40
2021,01,14,10,31,20.50
2021,01,14,10,32,20.00
2021,01,14,10,33,19.50
2021,01,14,10,34,20.20
2021,01,14,10,35,19.90
2021,01,14,10,36,15.50
2021,01,14,10,37,12.70
2021,01,14,10,38,14.60
2021,01,14,10,39,13.90
2021,01,14,10,40,12.40
2021,01,14,10,41,14.40
2021,01,14,10,42,17.90
2021,01,14,10,43,19.60
2021,01,14,10,44,19.20
2021,01,14,10,45,18.70
2021,01,14,10,46,18.10
2021,01,14,10,47,22.20
2021,01,14,10,48,21.00
2021,01,14,10,49,20.10
2021,01,14,10,50,21.20
2021,01,14,10,51,21.20
2021,01,14,10,52,18.20
2021,01,14,10,53,21.30
2021,01,14,10,54,22.50
2021,01,14,10,55,20.00
2021,01,14,10,56,20.50
2021,01,14,10,57,18.80
2021,01,14,10,58,23.30
2021,01,14,10,59,21.70
2021,01,14,11,00,21.60
2021,01,14,11,01,24.30
2021,01,14,11,02,22.60
2021,01,14,11,03,21.30
2021,01,14,11,04,17.30
2021,01,14,11,05,20.60
2021,01,14,11,06,20.30
2021,01,14,11,07,18.70
2021,01,14,11,08,20.50
2021,01,14,11,09,23.10
2021,01,14,11,10,23.00
2021,01,14,11,11,18.70
2021,01,14,11,12,17.90
2021,01,14,11,13,19.20
2021,01,14,11,14,22.10
2021,01,14,11,15,20.60
2021,01,14,11,16,18.00
2021,01,14,11,17,18.70
2021,01,14,11,18,20.20
2021,01,14,11,19,21.40
2021,01,14,11,20,22.90
2021,01,14,11,21,21.10
2021,01,14,11,22,18.30
2021,01,14,11,23,22.60
2021,01,14,11,24,20.10
2021,01,14,11,25,19.10
2021,01,14,11,26,19.00
2021,01,14,11,27,22.80
2021,01,14,11,28,25.30
2021,01,14,11,29,25.40
2021,01,14,11,30,25.50
2021,01,14,11,31,25.90
2021,01,14,11,32,25.70
2021,01,14,11,33,23.90
2021,01,14,11,34,22.60
2021,01,14,11,35,25.50
2021,01,14,11,36,27.30
2021,01,14,11,37,26.20
2021,01,14,11,38,26.90
2021,01,14,11,39,24.30
2021,01,14,11,40,22.80
2021,01,14,11,41,21.10
2021,01,14,11,42,23.50
2021,01,14,11,43,20.50
2021,01,14,11,44,19.70
2021,01,14,11,45,20.50
2021,01,14,11,46,18.80
2021,01,14,11,47,17.90
2021,01,14,11,48,19.70
2021,01,14,11,49,19.20
2021,01,14,11,50,18.30
2021,01,14,11,51,19.50
2021,01,14,11,52,19.60
2021,01,14,11,53,20.60
2021,01,14,11,54,21.30
2021,01,14,11,55,21.70
2021,01,14,11,56,24.00
2021,01,14,11,57,26.10
2021,01,14,11,58,27.20
2021,01,14,11,59,26.50
2021,01,14,12,00,28.00
2021,01,14,12,01,26.20
2021,01,14,12,02,28.30
2021,01,14,12,03,26.80
2021,01,14,12,04,24.80
2021,01,14,12,05,24.70
2021,01,14,12,06,30.10
2021,01,14,12,07,30.10
2021,01,14,12,08,26.70
2021,01,14,12,09,28.70
2021,01,14,12,10,26.10
2021,01,14,12,11,26.20
2021,01,14,12,12,27.00
2021,01,14,12,13,28.20
2021,01,14,12,14,28.10
2021,01,14,12,15,28.90
2021,01,14,12,16,28.10
2021,01,14,12,17,27.90
2021,01,14,12,18,29.70
2021,01,14,12,19,30.90
2021,01,14,12,20,29.60
2021,01,14,12,21,25.90
2021,01,14,12,22,26.90
2021,01,14,12,23,26.50
2021,01,14,12,24,28.20
2021,01,14,12,25,29.30
2021,01,14,12,26,27.00
2021,01,14,12,27,26.60
2021,01,14,12,28,28.40
2021,01,14,12,29,28.90
2021,01,14,12,30,26.00
2021,01,14,12,31,27.70
2021,01,14,12,32,30.40
2021,01,14,12,33,29.60
2021,01,14,12,34,25.70
2021,01,14,12,35,26.20
2021,01,14,12,36,28.00
2021,01,14,12,37,25.90
2021,01,14,12,38,29.00
2021,01,14,12,39,25.50
2021,01,14,12,40,29.00
2021,01,14,12,41,27.80
2021,01,14,12,42,27.80
2021,01,14,12,43,28.20
2021,01,14,12,44,28.50
2021,01,14,12,45,25.40
2021,01,14,12,46,26.40
2021,01,14,12,47,25.40
2021,01,14,12,48,25.10
2021,01,14,12,49,24.60
2021,01,14,12,50,25.50
2021,01,14,12,51,25.70
2021,01,14,12,52,27.60
2021,01,14,12,53,24.70
2021,01,14,12,54,25.60
2021,01,14,12,55,23.90
2021,01,14,12,56,24.70
2021,01,14,12,57,24.50
2021,01,14,12,58,24.70
2021,01,14,12,59,25.10
2021,01,14,13,00,24.50
2021,01,14,13,01,24.20
2021,01,14,13,02,24.30
2021,01,14,13,03,23.50
2021,01,14,13,04,23.20
2021,01,14,13,05,24.10
2021,01,14,13,06,24.20
2021,01,14,13,07,23.50
2021,01,14,13,08,23.30
2021,01,14,13,09,23.00
2021,01,14,13,10,22.40
2021,01,14,13,11,20.40
2021,01,14,13,12,21.70
2021,01,14,13,13,20.30
2021,01,14,13,14,22.30
2021,01,14,13,15,22.00
2021,01,14,13,16,22.30
2021,01,14,13,17,23.60
2021,01,14,13,18,21.10
2021,01,14,13,19,22.80
2021,01,14,13,20,21.50
2021,01,14,13,21,21.00
2021,01,14,13,22,22.20
2021,01,14,13,23,22.00
2021,01,14,13,24,23.40
2021,01,14,13,25,22.50
2021,01,14,13,26,21.80
2021,01,14,13,27,21.20
2021,01,14,13,28,18.70
2021,01,14,13,29,19.70
2021,01,14,13,30,19.40
2021,01,14,13,31,19.70
2021,01,14,13,32,19.20
2021,01,14,13,33,19.10
2021,01,14,13,34,17.20
2021,01,14,13,35,16.00
2021,01,14,13,36,16.90
2021,01,14,13,37,16.90
2021,01,14,13,38,18.20
2021,01,14,13,39,18.30
2021,01,14,13,40,18.20
2021,01,14,13,41,18.20
2021,01,14,13,42,18.00
2021,01,14,13,43,17.20
2021,01,14,13,44,17.70
2021,01,14,13,45,17.70
2021,01,14,13,46,18.20
2021,01,14,13,47,18.20
2021,01,14,13,48,17.50
2021,01,14,13,49,17.50
2021,01,14,13,50,17.30
2021,01,14,13,51,18.00
2021,01,14,13,52,18.10
2021,01,14,13,53,17.50
2021,01,14,13,54,18.30
2021,01,14,13,55,17.50
2021,01,14,13,56,17.20
2021,01,14,13,57,16.70
2021,01,14,13,58,16.90
2021,01,14,13,59,16.30
2021,01,14,14,00,17.10
2021,01,14,14,01,18.00
2021,01,14,14,02,17.40
2021,01,14,14,03,17.30
2021,01,14,14,04,17.10
2021,01,14,14,05,18.60
2021,01,14,14,06,19.10
2021,01,14,14,07,19.20
2021,01,14,14,08,17.90
2021,01,14,14,09,17.80
2021,01,14,14,10,16.30
2021,01,14,14,11,17.40
2021,01,14,14,12,18.80
2021,01,14,14,13,19.10
2021,01,14,14,14,19.80
2021,01,14,14,15,18.80
2021,01,14,14,16,17.50
2021,01,14,14,17,17.60
2021,01,14,14,18,17.40
2021,01,14,14,19,18.40
2021,01,14,14,20,19.20
2021,01,14,14,21,20.50
2021,01,14,14,22,21.20
2021,01,14,14,23,21.20
2021,01,14,14,24,21.30
2021,01,14,14,25,25.80
2021,01,14,14,26,24.00
2021,01,14,14,27,24.00
2021,01,14,14,28,23.80
2021,01,14,14,29,22.80
2021,01,14,14,30,20.40
2021,01,14,14,31,21.20
2021,01,14,14,32,22.10
2021,01,14,14,33,22.70
2021,01,14,14,34,22.20
2021,01,14,14,35,22.50
2021,01,14,14,36,22.70
2021,01,14,14,37,23.00
2021,01,14,14,38,22.50
2021,01,14,14,39,23.30
2021,01,14,14,40,24.10
2021,01,14,14,41,25.00
2021,01,14,14,42,24.10
2021,01,14,14,43,23.00
2021,01,14,14,44,23.00
2021,01,14,14,45,25.00
2021,01,14,14,46,26.30
2021,01,14,14,47,24.50
2021,01,14,14,48,24.10
2021,01,14,14,49,24.60
2021,01,14,14,50,23.30
2021,01,14,14,51,23.30
2021,01,14,14,52,22.00
2021,01,14,14,53,22.90
2021,01,14,14,54,22.00
2021,01,14,14,55,23.10
2021,01,14,14,56,23.00
2021,01,14,14,57,22.50
2021,01,14,14,58,22.10
2021,01,14,14,59,21.50
2021,01,14,15,00,19.50
2021,01,14,15,01,17.60
2021,01,14,15,02,16.50
2021,01,14,15,03,16.00
2021,01,14,15,04,16.30
2021,01,14,15,05,16.70
2021,01,14,15,06,16.10
2021,01,14,15,07,16.30
2021,01,14,15,08,15.00
2021,01,14,15,09,16.10
2021,01,14,15,10,16.30
2021,01,14,15,11,16.70
2021,01,14,15,12,18.10
2021,01,14,15,13,18.40
2021,01,14,15,14,17.60
2021,01,14,15,15,17.30
2021,01,14,15,16,18.50
2021,01,14,15,17,19.90
2021,01,14,15,18,20.90
2021,01,14,15,19,20.90
2021,01,14,15,20,20.80
2021,01,14,15,21,19.40
2021,01,14,15,22,20.30
2021,01,14,15,23,20.80
2021,01,14,15,24,20.50
2021,01,14,15,25,20.40
2021,01,14,15,26,21.10
2021,01,14,15,27,22.50
2021,01,14,15,28,22.80
2021,01,14,15,29,21.20
2021,01,14,15,30,20.40
2021,01,14,15,31,19.60
2021,01,14,15,32,19.30
2021,01,14,15,33,19.10
2021,01,14,15,34,19.50
2021,01,14,15,35,20.00
2021,01,14,15,36,19.40
2021,01,14,15,37,20.50
2021,01,14,15,38,21.60
2021,01,14,15,39,22.20
2021,01,14,15,40,22.20
2021,01,14,15,41,22.10
2021,01,14,15,42,24.00
2021,01,14,15,43,24.30
2021,01,14,15,44,24.50
2021,01,14,15,45,25.30
2021,01,14,15,46,23.90
2021,01,14,15,47,24.10
2021,01,14,15,48,22.50
2021,01,14,15,49,24.50
2021,01,14,15,50,26.10
2021,01,14,15,51,26.10
2021,01,14,15,52,26.30
2021,01,14,15,53,26.50
2021,01,14,15,54,26.30
2021,01,14,15,55,25.70
2021,01,14,15,56,25.30
2021,01,14,15,57,25.20
2021,01,14,15,58,24.90
2021,01,14,15,59,24.40
2021,01,14,16,00,24.20
2021,01,14,16,01,24.90
2021,01,14,16,02,24.10
2021,01,14,16,03,24.10
2021,01,14,16,04,24.80
2021,01,14,16,05,25.10
2021,01,14,16,06,25.80
2021,01,14,16,07,26.60
2021,01,14,16,08,26.80
2021,01,14,16,09,25.80
2021,01,14,16,10,26.50
2021,01,14,16,11,25.40
2021,01,14,16,12,25.50
2021,01,14,16,13,25.70
2021,01,14,16,14,25.40
2021,01,14,16,15,27.40
2021,01,14,16,16,27.40
2021,01,14,16,17,26.90
2021,01,14,16,18,27.80
2021,01,14,16,19,26.00
2021,01,14,16,20,25.70
2021,01,14,16,21,25.70
2021,01,14,16,22,25.70
2021,01,14,16,23,25.30
2021,01,14,16,24,23.80
2021,01,14,16,25,22.50
2021,01,14,16,26,22.60
2021,01,14,16,27,23.10
2021,01,14,16,28,22.80
2021,01,14,16,29,22.50
2021,01,14,16,30,23.20
2021,01,14,16,31,23.80
2021,01,14,16,32,22.80
2021,01,14,16,33,22.50
2021,01,14,16,34,22.50
2021,01,14,16,35,22.50
2021,01,14,16,36,21.90
2021,01,14,16,37,22.90
2021,01,14,16,38,21.50
2021,01,14,16,39,20.50
2021,01,14,16,40,18.70
2021,01,14,16,41,19.30
2021,01,14,16,42,19.10
2021,01,14,16,43,16.60
2021,01,14,16,44,15.80
2021,01,14,16,45,16.90
2021,01,14,16,46,16.40
2021,01,14,16,47,16.60
2021,01,14,16,48,16.50
2021,01,14,16,49,15.60
2021,01,14,16,50,15.40
2021,01,14,16,51,15.50
2021,01,14,16,52,16.10
2021,01,14,16,53,16.30
2021,01,14,16,54,16.50
2021,01,14,16,55,17.80
2021,01,14,16,56,20.30
2021,01,14,16,57,21.50
2021,01,14,16,58,22.50
2021,01,14,16,59,22.20
2021,01,14,17,00,22.30
2021,01,14,17,01,22.80
2021,01,14,17,02,23.90
2021,01,14,17,03,24.00
2021,01,14,17,04,22.80
2021,01,14,17,05,22.00
2021,01,14,17,06,21.70
2021,01,14,17,07,20.10
2021,01,14,17,08,20.60
2021,01,14,17,09,20.00
2021,01,14,17,10,21.10
2021,01,14,17,11,19.80
2021,01,14,17,12,19.70
2021,01,14,17,13,17.50
2021,01,14,17,14,18.70
2021,01,14,17,15,17.00
2021,01,14,17,16,18.80
2021,01,14,17,17,18.30
2021,01,14,17,18,18.00
2021,01,14,17,19,16.60
2021,01,14,17,20,16.40